LA3SP-1 Weather Reports


time (UTC)temp
C
wind
direction
speed
KPH
gust
KPH
rain 1hr
cm
rain 24hr
cm
rain mn
cm
humidity
%
barometer
mb
20260503021315 0 315 4.8 0.0 0.00 0.00 0.00 77 1005.5
20260503020313 0 315 3.2 0.0 0.00 0.00 0.00 78 1005.7
20260503014311 0 292 4.8 0.0 0.00 0.00 0.00 79 1005.4
20260503013309 0 292 3.2 0.0 0.00 0.00 0.00 79 1005.5
20260503012308 0 315 1.6 0.0 0.00 0.00 0.00 79 1005.4
20260503011413 0 315 0.0 0.0 0.00 0.00 0.00 79 1005.4
20260503011306 0 315 0.0 0.0 0.00 0.00 0.00 79 1005.4
20260503010305 0 315 0.0 0.0 0.00 0.00 0.00 79 1005.4
20260503004303 0 315 0.0 0.0 0.00 0.00 0.00 79 1005.4
20260503003301 0 315 0.0 0.0 0.00 0.00 0.00 79 1005.4
20260503001622 1 315 0.0 0.0 0.00 0.00 0.00 79 1005.4
20260503001405 1 315 0.0 0.0 0.00 0.00 0.00 79 1005.4
20260503001258 1 315 0.0 0.0 0.00 0.00 0.00 79 1005.4
20260503000257 1 315 0.0 0.0 0.00 0.00 0.00 79 1005.4
20260502235255 1 315 1.6 0.0 0.00 0.00 0.00 80 1005.6
20260502233253 1 315 3.2 0.0 0.00 0.00 0.00 80 1005.5
20260502232251 1 315 3.2 0.0 0.00 0.00 0.00 81 1005.6
20260502231250 1 315 3.2 0.0 0.00 0.00 0.00 82 1005.8
20260502223529 1 315 1.6 0.0 0.00 0.00 0.00 81 1005.8
20260502223245 1 315 1.6 0.0 0.00 0.00 0.00 81 1005.8
20260502222243 1 315 0.0 0.0 0.00 0.00 0.00 80 1005.8
20260502220240 2 315 3.2 0.0 0.00 0.00 0.00 79 1005.7
20260502215239 2 315 0.0 0.0 0.00 0.00 0.00 79 1005.8
20260502214237 2 315 1.6 0.0 0.00 0.00 0.00 79 1005.8
20260502212235 2 315 6.4 0.0 0.00 0.00 0.00 80 1005.8
20260502211233 2 315 3.2 0.0 0.00 0.00 0.00 79 1005.8
20260502210232 2 315 0.0 0.0 0.00 0.00 0.00 79 1005.9
20260502204229 2 292 0.0 0.0 0.00 0.00 0.00 79 1005.9
20260502203227 2 292 0.0 0.0 0.00 0.00 0.00 79 1005.9
20260502201225 2 315 1.6 0.0 0.00 0.00 0.00 79 1005.9
20260502200224 2 315 0.0 0.0 0.00 0.00 0.00 79 1006.0
20260502195222 2 315 8.0 0.0 0.00 0.00 0.00 79 1006.0
20260502194221 2 270 0.0 0.0 0.00 0.00 0.00 79 1006.0
20260502193219 2 270 1.6 0.0 0.00 0.00 0.00 78 1006.0
20260502192218 3 292 0.0 0.0 0.00 0.00 0.00 78 1006.0
20260502185214 3 292 9.7 0.0 0.00 0.00 0.00 77 1005.9
20260502184212 3 292 6.4 0.0 0.00 0.00 0.00 77 1005.9
20260502183211 3 225 0.0 0.0 0.00 0.00 0.00 76 1006.0
20260502182209 3 270 4.8 0.0 0.00 0.00 0.00 76 1006.0
20260502180207 4 180 4.8 0.0 0.00 0.00 0.00 74 1006.1
20260502163155 5 225 3.2 0.0 0.00 0.00 0.00 73 1006.1
20260502162153 5 247 0.0 0.0 0.00 0.00 0.00 73 1006.2
20260502161152 5 247 0.0 0.0 0.00 0.00 0.00 73 1006.2
20260502152145 6 292 1.6 0.0 0.00 0.00 0.00 70 1006.5
20260502150142 6 270 4.8 0.0 0.00 0.00 0.00 70 1006.9
20260502130125 7 292 8.0 0.0 0.00 0.00 0.00 65 1007.0
20260502122120 8 292 4.8 0.0 0.00 0.00 0.00 64 1007.1
20260502121119 8 0 8.0 0.0 0.00 0.00 0.00 63 1007.2
20260502120117 8 202 0.0 0.0 0.00 0.00 0.00 63 1007.4
20260502113113 8 270 3.2 0.0 0.00 0.00 0.00 63 1007.4
20260502111110 8 270 4.8 0.0 0.00 0.00 0.00 63 1007.4
20260502110109 7 270 0.0 0.0 0.00 0.00 0.00 63 1007.4
20260502105107 7 315 0.0 0.0 0.00 0.00 0.00 64 1007.4
20260502104106 7 270 0.0 0.0 0.00 0.00 0.00 64 1007.6
20260502103104 7 225 3.2 0.0 0.00 0.00 0.00 65 1007.4
20260502101102 6 270 0.0 0.0 0.00 0.00 0.00 69 1007.8
20260502071037 3 292 12.9 0.0 0.00 0.00 0.00 70 1008.5
20260502064033 5 247 8.0 0.0 0.00 0.00 0.00 66 1008.4
20260502063031 5 270 4.8 0.0 0.00 0.00 0.00 65 1008.5
20260502061028 5 292 9.7 0.0 0.00 0.00 0.00 61 1008.3
20260502060027 5 315 6.4 0.0 0.00 0.00 0.00 60 1008.1
20260502055025 5 292 4.8 0.0 0.00 0.00 0.00 60 1008.3
20260502053024 4 292 4.8 0.0 0.00 0.00 0.00 58 1008.5
20260502052022 3 270 4.8 0.0 0.00 0.00 0.00 59 1008.4
20260502051020 3 270 1.6 0.0 0.00 0.00 0.00 58 1008.5
20260502050019 3 247 0.0 0.0 0.00 0.00 0.00 59 1008.7
20260502045017 3 270 8.0 0.0 0.00 0.00 0.00 59 1008.9
20260502044016 3 315 8.0 0.0 0.00 0.00 0.00 61 1008.7
20260502042013 2 292 0.0 0.0 0.00 0.00 0.00 62 1008.7
20260502041012 2 292 0.0 0.0 0.00 0.00 0.00 62 1008.7
20260502040010 2 315 0.0 0.0 0.00 0.00 0.00 62 1008.7
20260502035329 3 270 0.0 0.0 0.00 0.00 0.00 58 1008.8
20260502035009 2 270 0.0 0.0 0.00 0.00 0.00 61 1008.8
20260502034841 3 270 0.0 0.0 0.00 0.00 0.00 58 1008.8
20260502034007 3 270 0.0 0.0 0.00 0.00 0.00 58 1008.8
20260502032005 4 225 0.0 0.0 0.00 0.00 0.00 56 1009.1
20260502031004 4 225 0.0 0.0 0.00 0.00 0.00 56 1009.0
20260502030002 4 22 1.6 0.0 0.00 0.00 0.00 56 1009.2
20260502025001 4 270 8.0 0.0 0.00 0.00 0.00 56 1009.4
20260502023959 4 270 9.7 0.0 0.00 0.00 0.00 56 1009.2
20260502022958 4 292 11.3 0.0 0.00 0.00 0.00 57 1009.3